TimeAKST,TemperatureF,Dew PointF,Humidity,Sea Level PressureIn,VisibilityMPH,Wind Direction,Wind SpeedMPH,Gust SpeedMPH,PrecipitationIn,Events,Conditions,WindDirDegrees,DateUTC
12:54 AM,39.9,37.0,89,29.91,10.0,ENE,8.1,-,0.00,Rain,Light Rain,60,2012-11-06 09:54:00
1:32 AM,39.2,35.6,87,29.89,7.0,East,6.9,-,0.04,Rain,Rain,80,2012-11-06 10:32:00
1:54 AM,37.9,36.0,93,29.91,9.0,ESE,5.8,-,0.07,Rain,Light Rain,110,2012-11-06 10:54:00
3:33 AM,37.4,35.6,93,29.88,6.0,East,6.9,-,0.01,Rain,Light Rain,90,2012-11-06 12:33:00
3:54 AM,36.0,35.1,97,29.89,9.0,SE,10.4,-,0.02,Rain,Light Rain,140,2012-11-06 12:54:00
4:23 AM,35.6,35.6,100,29.88,8.0,SE,10.4,-,0.01,Rain,Light Rain,130,2012-11-06 13:23:00
4:38 AM,35.6,33.8,93,29.88,9.0,ESE,9.2,-,0.03,Rain,Light Rain,120,2012-11-06 13:38:00
4:54 AM,35.1,34.0,96,29.89,10.0,East,6.9,-,0.03,Rain,Light Rain,100,2012-11-06 13:54:00
5:54 AM,35.1,34.0,96,29.89,10.0,ESE,4.6,-,0.01,Rain,Light Rain,110,2012-11-06 14:54:00
6:54 AM,35.1,34.0,96,29.88,10.0,Calm,Calm,-,0.00,,Overcast,0,2012-11-06 15:54:00
7:43 AM,35.6,35.6,100,29.88,2.5,Calm,Calm,-,0.00,,Overcast,0,2012-11-06 16:43:00
7:54 AM,35.1,35.1,100,29.88,1.8,Calm,Calm,-,0.00,,Overcast,0,2012-11-06 16:54:00
8:37 AM,35.6,33.8,93,29.86,2.0,WNW,6.9,-,0.00,,Overcast,290,2012-11-06 17:37:00
8:52 AM,35.6,33.8,93,29.86,3.0,WNW,5.8,-,0.00,,Overcast,290,2012-11-06 17:52:00
8:54 AM,35.1,34.0,96,29.87,3.0,WNW,6.9,-,0.00,,Overcast,290,2012-11-06 17:54:00
9:11 AM,35.6,33.8,93,29.86,2.0,WNW,10.4,-,N/A,,Overcast,290,2012-11-06 18:11:00
9:36 AM,35.6,33.8,93,29.86,3.0,WNW,9.2,-,N/A,,Overcast,300,2012-11-06 18:36:00
9:40 AM,35.6,35.6,100,29.85,2.5,WNW,9.2,-,N/A,,Overcast,300,2012-11-06 18:40:00
9:51 AM,35.6,33.8,93,29.85,5.0,WNW,10.4,-,N/A,,Overcast,300,2012-11-06 18:51:00
9:54 AM,35.1,34.0,96,29.86,8.0,WNW,10.4,-,N/A,,Overcast,300,2012-11-06 18:54:00
10:14 AM,35.6,33.8,93,29.85,10.0,WNW,12.7,-,N/A,,Overcast,290,2012-11-06 19:14:00
10:38 AM,35.6,35.6,100,29.84,10.0,WNW,11.5,-,N/A,,Overcast,300,2012-11-06 19:38:00
10:54 AM,36.0,35.1,97,29.85,10.0,WNW,11.5,-,N/A,,Overcast,300,2012-11-06 19:54:00
11:54 AM,36.0,35.1,97,29.83,10.0,WNW,11.5,-,N/A,,Mostly Cloudy,300,2012-11-06 20:54:00
12:54 PM,37.0,35.1,93,29.83,10.0,WNW,11.5,-,N/A,,Mostly Cloudy,300,2012-11-06 21:54:00
1:54 PM,37.0,35.1,93,29.81,10.0,WNW,13.8,-,N/A,,Overcast,300,2012-11-06 22:54:00
2:54 PM,37.0,33.1,86,29.80,10.0,WNW,13.8,-,N/A,,Overcast,300,2012-11-06 23:54:00
3:54 PM,36.0,30.9,82,29.80,10.0,NW,13.8,-,N/A,,Overcast,310,2012-11-07 00:54:00
4:54 PM,35.1,28.9,78,29.81,10.0,NW,11.5,-,N/A,,Overcast,310,2012-11-07 01:54:00
5:54 PM,34.0,28.0,79,29.82,10.0,NW,11.5,-,N/A,,Overcast,310,2012-11-07 02:54:00
6:54 PM,34.0,27.0,75,29.84,10.0,WNW,11.5,-,N/A,,Overcast,300,2012-11-07 03:54:00
7:54 PM,33.1,27.0,78,29.87,10.0,WNW,13.8,19.6,0.00,Snow,Light Snow,300,2012-11-07 04:54:00
8:25 PM,32.0,26.6,80,29.87,7.0,WNW,15.0,-,0.00,Snow,Light Snow,290,2012-11-07 05:25:00
8:50 PM,32.0,26.6,80,29.88,6.0,WNW,11.5,19.6,0.00,Snow,Light Snow,300,2012-11-07 05:50:00
8:54 PM,32.0,27.0,82,29.89,7.0,WNW,11.5,18.4,0.00,Snow,Light Snow,290,2012-11-07 05:54:00
9:54 PM,30.9,26.1,82,29.91,9.0,WNW,16.1,21.9,0.00,Snow,Light Snow,290,2012-11-07 06:54:00
10:54 PM,32.0,23.0,69,29.93,10.0,WNW,17.3,-,0.00,,Overcast,300,2012-11-07 07:54:00
11:54 PM,30.9,21.9,69,29.96,10.0,WNW,19.6,27.6,0.00,,Overcast,290,2012-11-07 08:54:00